Lid_Strength_Index
0 2 1 2 7 7 9 10 9 10 10 9 9 9 9 10 10 10 8 7 8 8 7 5 3 2 2 2 1 1 1 1 1 1 0 0 -0 -0 -0 -1 -1 -1 -1 -2 -3 -1 -1 -1 -2
2 2 2 3 8 10 9 9 10 9 9 9 10 10 10 10 9 10 9 8 8 8 7 5 4 3 2 2 2 2 2 2 2 1 1 1 0 0 0 0 -0 -0 -1 -1 -1 -2 -1 -0 -0
3 5 4 5 7 10 9 10 9 10 9 10 10 10 10 10 9 8 8 8 8 8 7 5 4 4 3 3 3 3 3 2 2 2 2 2 2 1 1 1 1 1 0 0 -0 -1 -1 1 1
2 4 5 8 9 9 10 9 10 11 11 10 10 11 10 9 8 8 8 8 8 9 7 6 5 5 4 4 4 4 3 3 3 3 3 3 2 2 2 2 2 1 1 1 0 0 -0 0 2
3 4 7 9 10 11 10 9 10 11 11 11 11 12 11 9 8 8 8 9 9 9 8 7 6 6 6 5 5 5 4 4 4 4 4 4 4 3 3 3 3 2 2 1 1 1 1 0 2
4 5 9 10 11 11 10 10 10 10 10 11 12 11 10 9 9 9 8 9 9 9 9 8 7 7 7 6 6 5 5 5 5 5 5 5 5 4 4 4 4 3 3 2 2 2 1 1 1
6 6 9 9 11 12 11 10 10 10 10 11 11 12 11 10 8 9 9 9 9 9 9 9 8 8 9 8 7 6 6 6 6 6 6 6 6 6 5 5 4 4 4 4 3 3 2 2 2
5 6 10 10 11 11 11 11 11 11 11 11 11 12 11 9 9 9 9 9 9 9 9 9 8 8 8 8 9 7 7 7 8 8 7 8 8 7 7 6 5 5 5 5 4 4 4 4 4
7 8 9 10 11 11 12 12 12 12 12 12 11 11 11 9 10 10 10 9 9 9 9 9 8 8 8 8 9 9 9 9 9 9 9 8 8 8 8 8 6 6 6 6 5 5 5 5 5
7 8 10 11 11 11 12 12 12 12 12 12 12 11 10 10 10 10 10 10 9 9 9 8 8 8 8 9 8 8 8 8 8 8 8 8 8 8 8 8 7 7 7 7 6 6 6 6 6
11 10 12 13 12 12 12 13 12 12 12 11 11 11 10 10 10 10 10 9 9 9 8 8 8 8 8 8 8 8 7 8 8 8 8 8 8 8 8 8 8 8 8 8 8 8 8 7 7
11 13 13 13 13 13 13 12 13 12 11 11 10 10 10 10 10 10 9 9 9 9 8 8 8 8 8 8 8 8 8 8 8 8 8 8 8 8 8 9 8 8 8 8 8 8 7 7 7
12 13 13 14 14 14 14 13 13 13 11 12 12 11 10 10 10 9 9 9 9 9 8 8 8 8 8 8 8 8 8 8 8 8 8 8 9 9 8 8 8 8 9 9 9 8 8 8 7
12 13 13 13 13 13 14 13 14 11 11 12 12 11 10 10 10 10 9 9 9 9 8 8 8 7 8 8 8 8 8 8 8 8 8 8 8 8 8 8 8 9 9 9 9 8 8 8 8
12 12 12 12 12 13 13 12 13 10 13 12 12 11 11 10 10 10 9 9 9 9 8 8 8 8 8 8 8 8 7 8 8 8 8 9 8 8 9 9 9 9 9 9 9 9 8 8 7
12 11 11 13 12 13 12 10 11 12 12 12 12 12 11 11 11 10 10 9 9 9 9 9 9 8 8 8 8 8 8 8 8 8 8 8 8 8 8 9 9 9 9 9 9 9 9 8 8
10 11 12 12 14 14 13 11 11 12 13 12 12 12 12 11 11 10 10 9 9 9 10 9 9 9 9 8 8 8 8 8 8 8 8 8 8 8 8 9 8 9 9 9 9 9 9 9 9
13 12 12 12 13 14 13 12 10 11 13 12 12 12 12 12 11 11 10 10 10 10 10 10 9 9 9 8 8 8 8 8 8 8 8 8 8 9 8 9 9 9 10 10 9 10 9 9 9
14 14 14 12 15 15 12 12 11 10 11 11 11 11 11 12 11 11 10 10 10 10 10 9 8 8 8 8 8 8 9 8 8 8 9 9 9 9 9 9 10 10 10 10 10 10 10 10 8
14 14 13 13 15 15 13 14 12 12 12 12 12 11 12 12 12 12 11 11 10 10 9 8 9 9 8 8 8 9 9 9 9 8 9 9 9 9 10 10 10 10 10 10 10 10 10 10 9
13 14 15 16 15 15 16 13 14 14 14 14 13 12 12 12 12 12 12 11 10 9 8 9 9 9 9 9 9 9 9 9 9 8 9 9 10 10 10 10 10 10 10 11 10 10 10 11 9
14 16 17 17 17 15 16 17 13 14 15 15 14 14 13 12 12 12 12 12 10 8 8 9 9 9 9 9 9 10 10 10 9 9 9 10 10 10 10 10 11 10 10 11 10 10 10 10 11
13 16 16 17 18 19 17 17 12 15 16 15 14 13 13 12 12 12 12 10 9 8 8 8 9 9 10 10 10 10 10 10 9 10 10 10 10 10 10 10 11 11 11 11 11 11 11 10 11
15 15 17 17 17 19 19 17 12 13 15 15 15 14 13 13 12 12 11 9 9 8 8 8 9 10 10 10 11 11 11 10 11 10 10 10 11 10 10 11 11 11 11 11 11 10 11 11 10
14 13 18 19 20 18 19 18 13 13 14 14 14 14 13 13 12 11 10 9 9 9 9 9 10 10 10 10 11 12 11 11 11 11 11 11 11 11 11 11 11 11 11 11 11 11 11 11 11
16 15 16 21 19 17 19 16 12 14 15 15 14 13 12 11 11 10 10 9 9 9 9 10 10 10 10 10 11 11 11 11 11 11 12 11 11 12 12 12 11 11 11 11 11 11 11 11 11
15 14 17 18 23 19 15 14 14 15 16 15 13 13 12 11 11 11 10 10 10 9 10 10 10 10 10 10 10 11 11 11 11 12 11 11 12 12 12 12 12 11 11 11 11 11 11 11 11
15 16 16 16 20 20 16 17 14 14 16 15 14 13 12 11 11 11 10 10 10 10 10 10 10 10 10 10 10 11 11 11 12 12 12 12 12 12 12 12 12 11 11 11 11 11 11 11 11
16 16 18 18 17 19 19 16 12 13 14 14 13 12 12 11 11 11 11 10 10 10 10 10 10 10 10 10 10 10 11 11 12 12 11 12 12 12 12 12 12 12 11 11 11 11 11 11 11
18 15 15 16 17 18 18 17 14 14 15 15 14 13 11 11 11 11 11 11 11 10 10 10 10 10 10 10 10 11 11 12 12 11 11 12 12 12 12 12 12 11 11 11 11 11 11 11 12